Weather History for KIAB - January, 2013

Change the Weather History Date:

Wednesday, January 2, 2013

  Actual Average Record
Temperature  
Mean Temperature 24 °F -  
Max Temperature 34 °F 43 °F 71 °F (1997)
Min Temperature 14 °F 23 °F 5 °F (2002)
Degree Days  
Heating Degree Days 41    
Moisture  
Dew Point 21 °F    
Average Humidity 90    
Maximum Humidity 100    
Minimum Humidity 68    
Precipitation  
Precipitation 0.00 in - - ()
Sea Level Pressure  
Sea Level Pressure 30.28 in    
Wind  
Wind Speed 6 mph (WSW)    
Max Wind Speed 12 mph    
Max Gust Speed -    
Visibility 9 miles    
Events      
Averages and records for this station are not official NWS values.
T = Trace of Precipitation, MM = Missing Value Source: NWS Daily Summary

Daily Weather History Graph

Daily Weather History Graph

Search for Another Location

Airport or City:

Trip Planner

Search our weather history database for the weather conditions in past years. The results will help you decide how hot, cold, wet, or windy it might be!

Date:

Astronomy

Jan. 02, 2013 Rise Set
Actual Time 7:44 AM CST 5:22 PM CST
Civil Twilight 7:15 AM CST 5:51 PM CST
Nautical Twilight 6:42 AM CST 6:24 PM CST
Astronomical Twilight 6:10 AM CST 6:56 PM CST
Moon 10:49 PM CST (1/2) 10:32 AM CST (1/2)
Length of Visible Light 10h 36m
Length of Day
9h 38m
Waning Gibbous, 75% of the Moon is Illuminated
Jan 2
Waning Gibbous
Jan 4
Last Quarter
Jan 11
New
Jan 18
First Quarter
Jan 26
Full

Hourly Weather History & Observations

Time (CST) Temp. Windchill Dew Point Humidity Pressure Visibility Wind Dir Wind Speed Gust Speed Precip Events Conditions
12:55 AM 17.1 °F 11.7 °F 16.7 °F 98% 30.31 in 8.0 mi West 3.5 mph - N/A   Clear
1:55 AM 14.5 °F 7.1 °F 13.8 °F 97% 30.32 in 9.0 mi SW 4.6 mph - N/A   Clear
2:55 AM 15.1 °F 7.7 °F 14.9 °F 99% 30.31 in 9.0 mi SW 4.6 mph - N/A   Clear
3:55 AM 15.6 °F - 15.3 °F 98% 30.29 in 8.0 mi Calm Calm - N/A   Clear
4:55 AM 14.0 °F 5.1 °F 13.5 °F 98% 30.27 in 9.0 mi SSW 5.8 mph - N/A   Clear
5:02 AM 14.0 °F 6.5 °F 14.0 °F 100% 30.27 in 9.0 mi West 4.6 mph - N/A   Clear
5:55 AM 14.4 °F 6.9 °F 14.2 °F 99% 30.25 in 10.0 mi SSW 4.6 mph - N/A   Clear
6:22 AM 14.0 °F 8.2 °F 14.0 °F 100% 30.26 in 9.0 mi SSW 3.5 mph - N/A   Clear
6:55 AM 14.7 °F 4.8 °F 14.4 °F 98% 30.25 in 10.0 mi SSE 6.9 mph - N/A   Clear
7:55 AM 14.2 °F 4.1 °F 14.0 °F 99% 30.25 in 8.0 mi South 6.9 mph - N/A   Clear
8:55 AM 17.2 °F 7.8 °F 16.9 °F 98% 30.26 in 10.0 mi SSW 6.9 mph - N/A   Clear
9:55 AM 21.0 °F 9.9 °F 19.6 °F 94% 30.27 in 10.0 mi SSW 10.4 mph - N/A   Clear
10:55 AM 24.4 °F 14.2 °F 19.6 °F 82% 30.27 in 10.0 mi SW 10.4 mph - N/A   Clear
11:55 AM 25.7 °F 15.1 °F 19.4 °F 77% 30.26 in 10.0 mi WSW 11.5 mph - N/A   Clear
12:55 PM 29.1 °F 21.3 °F 21.6 °F 73% 30.22 in 10.0 mi SSW 8.1 mph - N/A   Clear
1:55 PM 31.6 °F 25.1 °F 22.6 °F 69% 30.20 in 10.0 mi West 6.9 mph - N/A   Clear
2:55 PM 34.3 °F 25.9 °F 25.5 °F 70% 30.20 in 10.0 mi WNW 11.5 mph - N/A   Clear
3:55 PM 34.2 °F 25.7 °F 24.4 °F 68% 30.23 in 10.0 mi NNW 11.5 mph - N/A   Clear
4:13 PM 33.8 °F 25.3 °F 26.6 °F 75% 30.24 in 10.0 mi NNW 11.5 mph - N/A   Mostly Cloudy
4:28 PM 33.8 °F 26.4 °F 26.6 °F 75% 30.25 in 10.0 mi NNW 9.2 mph - N/A   Scattered Clouds
4:55 PM 33.3 °F 25.7 °F 27.0 °F 78% 30.25 in 10.0 mi North 9.2 mph - N/A   Clear
5:55 PM 30.9 °F 25.2 °F 27.1 °F 86% 30.26 in 10.0 mi WNW 5.8 mph - N/A   Clear
6:55 PM 29.8 °F 26.3 °F 27.5 °F 91% 30.29 in 10.0 mi WNW 3.5 mph - N/A   Clear
7:55 PM 29.1 °F 25.4 °F 27.5 °F 94% 30.31 in 10.0 mi WNW 3.5 mph - N/A   Clear
8:55 PM 28.8 °F 25.0 °F 27.7 °F 96% 30.32 in 10.0 mi SW 3.5 mph - N/A   Clear
9:55 PM 25.3 °F 21.1 °F 25.2 °F 99% 30.34 in 10.0 mi West 3.5 mph - N/A   Partly Cloudy
10:55 PM 28.8 °F 23.7 °F 28.8 °F 100% 30.34 in 10.0 mi West 4.6 mph - N/A   Scattered Clouds
11:34 PM 26.6 °F 22.6 °F 26.6 °F 100% 30.35 in 7.0 mi SW 3.5 mph - N/A   Clear
11:36 PM 26.6 °F 22.6 °F 26.6 °F 100% 30.35 in 8.0 mi WSW 3.5 mph - N/A   Clear
11:55 PM 24.4 °F - 24.4 °F 100% 30.35 in 8.0 mi Calm Calm - N/A   Clear